Regional Weather Roundup
Issued by NWS State College, PA

Home | Current Version | Previous Version | Text Only | Print | Product List | Glossary On
Versions: 1 2 3 4 5 6 7 8 9 10 11 12 13 14 15 16 17 18 19 20 21 22 23 24 25 26 27 28 29 30 31 32 33 34 35 36 37 38 39 40 41 42 43 44 45 46 47 48 49 50
000
ASUS41 KCTP 272303
RWRCTP

REGIONAL WEATHER ROUNDUP
NATIONAL WEATHER SERVICE STATE COLLEGE PA
700 PM EDT WED JUL 27 2016

Note: "fair" indicates few or no clouds below 12,000 feet with no
significant weather and/or obstructions to visibility.

* = STATION THAT DOES NOT REPORT PRECIPITATION /E.G. RAIN...SNOW...ETC/
    THUNDER OR FOG.

PAZ002>004-007>009-013>016-020>023-029>032-280000-
WESTERN PENNSYLVANIA

CITY           SKY/WX    TMP DP  RH WIND       PRES   REMARKS
ERIE           SUNNY     84  63  49 NW3       29.95F
MEADVILLE      SUNNY     82  56  40 VRB3      29.98S
FRANKLIN*      SUNNY     82  59  44 CALM      29.99S
NEW CASTLE     FAIR      88  61  40 CALM      29.96S
BEAVER COUNTY  NOT AVBL
BUTLER*        SUNNY     84  59  42 CALM      29.99S
PITTSBURGH INT MOSUNNY   89  57  33 N6        29.94F
PITTSBURGH     SUNNY     88  58  36 CALM      29.94F
INDIANA*       SUNNY     86  57  37 NW6       30.00S
LATROBE        MOSUNNY   86  59  39 VRB5      29.96F
WASHINGTON CO* CLOUDY    84  64  51 E6        29.96S
$$

PAZ004>006-010>012-017>019-024>028-033>037-041-042-045-046-049>053-280000-
CENTRAL PENNSYLVANIA

CITY           SKY/WX    TMP DP  RH WIND       PRES   REMARKS
BRADFORD       SUNNY     81  58  45 W8        30.01S
DUBOIS         SUNNY     84  56  38 NW7       29.99S
CLEARFIELD     SUNNY     87  54  32 W7        29.97S
JOHNSTOWN      SUNNY     83  55  38 W7        30.01F
ALTOONA        MOSUNNY   88  51  28 N5        29.97S
STATE COLLEGE  MOSUNNY   86  57  37 CALM      29.95S
WILLIAMSPORT   MOSUNNY   89  56  32 S7        29.89S
SELINSGROVE    SUNNY     82  76  81 CALM      29.91S
FT INDIANTOWN  SUNNY     89  61  39 N5        29.91S
CAPITAL CITY   MOSUNNY   90  62  39 E5        29.90S
HARRISBURG     MOSUNNY   89  70  53 S5        29.89F
YORK           SUNNY     87  65  47 E6        29.91F
$$

PAZ038>040-043-044-047-048-054-055-060>062-067>071-280000-
EASTERN PENNSYLVANIA

CITY           SKY/WX    TMP DP  RH WIND       PRES   REMARKS
SCRANTON       SUNNY     87  57  35 CALM      29.93S
MOUNT POCONO   SUNNY     81  55  40 W5        29.99S
ALLENTOWN      SUNNY     88  55  32 W6        29.90F
QUAKERTOWN*    CLEAR     88  63  42 CALM      29.92S
READING        SUNNY     90  58  33 NW8       29.89S
LANCASTER      SUNNY     87  59  38 CALM      29.91S
COATESVILLE    CLEAR     86  63  45 CALM      29.94S
POTTSTOWN      MOSUNNY   88  63  43 SW3       29.92S
BLUE BELL      MOSUNNY   82  68  61 W3        29.89S
DOYLESTOWN     SUNNY     85  62  46 CALM      29.90S
WILLOW GROVE   NOT AVBL
NORTH PHILA    SUNNY     89  65  44 SE5       29.90S
PHILADELPHIA   MOSUNNY   92  61  35 SW9       29.88F
$$




USA.gov is the U.S. government's official web portal to all federal, state and local government web resources and services.